sat.trackr.live / text

‹ back to catalog

INTELSAT 906 (IS-906)

NORAD 27513 · 2002-041A

PAYLOAD ACTIVE UNKNOWN

§ Identity

Operator
Country
ITSO
Launch date
2002-09-06
Launch site
FRGUI
Launch vehicle
Mass (kg)
RCS (m²)
22.30

Purposes: comms

External: N2YO · Heavens-Above · Gunter

§ Orbital elements

Epoch: 2026-05-24T21:12:09.870048Z

Period
1,436.10 min
Inclination
5.7447°
Eccentricity
0.0004638
Mean motion
1.00271448 rev/d
Perigee alt
35,767.1 km
Apogee alt
35,806.2 km
Semi-major
42,164.8 km
B*
0.0000e+0
RAAN
73.2029°
Arg perigee
347.0955°
Mean anomaly
204.3652°
Rev number
8,679

§ Raw data

INTELSAT 906 (IS-906)1 27513U 02041A   26144.88344757  .00000011  00000+0  00000+0 0  99982 27513   5.7447  73.2029 0004638 347.0955 204.3652  1.00271448 86793

JSON: /api/v1/satellites/27513 · /tle

For live sub-satellite position, see the globe view (requires WebGL).

§ Visibility from observer

Set your observer location to see the next 7 days of passes ≥ 10°. The values pass through the URL so the page stays shareable.

No JS? Fill the form by hand. The geolocation button needs JavaScript.